Location: Forli
(44.2227°N, 12.0407°E)
Time: 00:09:44
(UTC+02:00)

PCSat - Pass Details

Date: 18 April 2026
Orbit: 781 x 790 km, 67.1° (Epoch: 19 May)

Event Time Altitude Azimuth Distance (km) Brightness Sun altitude
Rises 23:05:40 0° 334° (NNW) 3,294 14.0 -27.8°
Reaches altitude 10° 23:08:21 10° 344° (NNW) 2,362 12.9 -28.1°
Maximum altitude 23:13:11 32° 47° (NE) 1,328 10.7 -28.6°
Enters shadow 23:13:14 32° 48° (NE) 1,328 10.7 -28.6°
